Regional Weather Roundup
Issued by NWS

Home | Current Version | Previous Version | Graphics & Text | Print | Product List | Glossary On
Versions: 1 2 3 4 5 6 7 8 9 10 11 12 13 14 15 16 17 18 19 20 21 22 23 24 25 26 27 28 29 30 31 32 33 34 35 36 37 38 39 40 41 42 43 44 45 46 47 48 49 50
000
ASUS43 KOAX 300902
RWRNE

WEATHER ROUNDUP FOR NEBRASKA
NATIONAL WEATHER SERVICE OMAHA NE
400 AM CDT SAT AUG 30 2014

NOTES: SATELLITE DATA IS BEING USED TO AUGMENT CLOUD COVER ABOVE
       12000 FEET.
       "FAIR" INDICATES FEW OR NO CLOUDS BELOW 12,000 FEET WITH NO
       SIGNIFICANT WEATHER AND/OR OBSTRUCTIONS TO VISIBILITY.

  * THESE STATIONS DO NOT REPORT WEATHER SUCH AS RAIN...SNOW OR FOG.

NEZ001>004-019>022-054>056-301000-
NEBRASKA PANHANDLE

CITY           SKY/WX    TMP DP  RH WIND       PRES   REMARKS
SCOTTSBLUFF    CLEAR     55  53  93 E6        30.04F
ALLIANCE       CLEAR     53  51  93 S5        30.04F
CHADRON        CLEAR     52  51  97 CALM      29.99F
KIMBALL        CLEAR     54  50  88 S8        30.08F
SIDNEY         CLEAR     56  53  90 SW9       30.09F
$$

NEZ057>060-069>072-079>082-301000-
SOUTHWEST NEBRASKA

CITY           SKY/WX    TMP DP  RH WIND       PRES   REMARKS
NORTH PLATTE   CLEAR     56  55  97 CALM      30.01R
IMPERIAL       CLEAR     59  55  87 NW3       30.04S
LEXINGTON      CLEAR     59  57  94 NW6       29.99S
MCCOOK         PTCLDY    60  59  96 SW3       30.01S
OGALLALA       MOCLDY    54  53  97 CALM      30.04S
$$

NEZ005>010-023>029-035>040-094-301000-
NORTH CENTRAL NEBRASKA

CITY           SKY/WX    TMP DP  RH WIND       PRES   REMARKS
VALENTINE      CLEAR     54  53  97 CALM      30.00F
AINSWORTH      CLEAR     55  54  95 CALM      30.00F
BROKEN BOW     CLEAR     58  55  90 N5        29.99S
O`NEILL        CLEAR     58  58  98 N6        29.97R
ORD            CLEAR     59  57  93 CALM      29.96R
THEDFORD       CLEAR     56  55  95 W3        30.03R
$$

NEZ041-046>049-061>064-073>077-083>087-301000-
SOUTH CENTRAL NEBRASKA

CITY           SKY/WX    TMP DP  RH WIND       PRES   REMARKS
GRAND ISLAND   CLEAR     62  58  86 W5        29.96R
AURORA         CLEAR     59  59 100 CALM      29.95R
HASTINGS       CLEAR     61  57  87 NW7       29.96R
HEBRON         CLEAR     64  60  87 NW5       29.93S
HOLDREGE       CLEAR     60  57  90 CALM      29.98S
KEARNEY *      CLEAR     61  57  88 NW7       29.98S
YORK           CLEAR     61 N/A N/A NW7       29.94R
$$

NEZ011>018-030>034-042>045-301000-
NORTHEAST NEBRASKA

CITY           SKY/WX    TMP DP  RH WIND       PRES   REMARKS
NORFOLK        CLEAR     62  60  93 NW6       29.92R
ALBION         CLEAR     61  58  91 CALM      29.94S
BLAIR          CLEAR     65  63  92 NW5       29.88R
FREMONT        CLEAR     64  62  94 W5        29.89R
TEKAMAH        CLEAR     64  62  93 NW3       29.87R
WAYNE          CLEAR     64  63  96 NW8       29.90R
$$

NEZ050>053-065>068-078-088>093-301000-
SOUTHEAST NEBRASKA

CITY           SKY/WX    TMP DP  RH WIND       PRES   REMARKS
LINCOLN        PTCLDY    67  63  87 NW6       29.91R
OMAHA EPPLEY   CLEAR     65  62  90 NW6       29.87R
BEATRICE       CLEAR     63  63 100 CALM      29.91R FOG
FALLS CITY     CLEAR     66  65  96 NW3       29.87S
NEBRASKA CITY  CLEAR     66  66 100 W6        29.89R
PLATTSMOUTH    CLEAR     66  64  93 W6        29.88S
$$

NEZ044-045-051>053-067-301000-
OMAHA AREA

CITY           SKY/WX    TMP DP  RH WIND       PRES   REMARKS
OMAHA EPPLEY   CLEAR     65  62  90 NW6       29.87R
BLAIR          CLEAR     65  63  92 NW5       29.88R
FREMONT        CLEAR     64  62  94 W5        29.89R
MILLARD        CLEAR     66  65  96 NW3       29.87R
OFFUTT AFB     CLEAR     64  64 100 CALM      29.87R
PLATTSMOUTH    CLEAR     66  64  93 W6        29.88S
WAHOO          FAIR      66  62  87 NW5       29.89R
$$


USA.gov is the U.S. government's official web portal to all federal, state and local government web resources and services.